User: anonymous   Login
Location: Caltech
(34.1382°N, 118.1253°W)
Time: 12:55:07
(UTC-08:00)
Language:

PAYLOAD A - Orbit

View from above orbital plane
View from above orbital plane
View from above satellite
View from above satellite

Ground track
Ground track

The orbit data is extracted from the following two-line orbital elements,

1 27840U 03031A   17023.10706537 -.00000015  00000-0  88934-5 0  9994
2 27840  98.2001  26.9060 0097922 195.7252 164.0890 14.38873142712454
Epoch (UTC): 23 January 2017 02:34:10
Eccentricity: 0.0097922
inclination: 98.2001°
perigee height: 692 km
apogee height: 832 km
right ascension of ascending node: 26.9060°
argument of perigee: 195.7252°
revolutions per day: 14.38873142
mean anomaly at epoch: 164.0890°
orbit number at epoch: 71245

The dashed part of the orbit path shows where the satellite is in the earth's shadow,  

DLR